Location: Red Bud (historical)
(37.7759°N, 88.4053°W)
Time: 23:12:12
(UTC+00:00)

SAR-Lupe-4 - Pass Details

Date: 29 October 2020
Orbit: 481 x 484 km, 98.2° (Epoch: 22 November)

Event Time Altitude Azimuth Distance (km) Brightness Sun altitude
Rises 23:23:48 0° 20° (NNE) 2,549 6.9 -5.8°
Reaches altitude 10° 23:25:56 10° 27° (NNE) 1,665 5.9 -6.2°
Maximum altitude 23:29:21 42° 100° (E) 699 3.9 -6.9°
Drops below altitude 10° 23:32:44 10° 172° (S) 1,652 6.3 -7.6°
Sets 23:34:51 0° 180° (S) 2,527 7.4 -8.0°
